Regional Weather Roundup
Issued by NWS

Home | Current Version | Previous Version | Text Only | Print | Product List | Glossary Off
Versions: 1 2 3 4 5 6 7 8 9 10 11 12 13 14 15 16 17 18 19 20 21 22 23 24 25 26 27 28 29 30 31 32 33 34 35 36 37 38 39 40 41 42 43 44 45 46 47 48 49 50

000
ASUS45 KBOU 290607
RWRCO

WEATHER ROUNDUP FOR COLORADO
NATIONAL WEATHER SERVICE DENVER/BOULDER CO
1100 PM MST FRI NOV 28 2014

NOTE: "FAIR" INDICATES FEW OR NO CLOUDS BELOW 12000 FEET WITH NO
SIGNIFICANT WEATHER AND/OR OBSTRUCTIONS TO VISIBILITY.

COZ001>005-013-030-031-290700-
...NORTHWEST COLORADO...

CITY           SKY/WX    TMP DP  RH WIND       PRES   REMARKS
CRAIG          CLEAR     29  20  69 CALM      29.91F
HAYDEN         CLEAR     32  16  51 E14       29.91F WCI  22
MEEKER         PTCLDY    44  17  33 VRB7      29.93F
MOUNT WERNER   NOT AVBL
STEAMBOAT SPGS CLEAR     23  19  85 CALM      29.93F
WALDEN         CLEAR     30  16  55 CALM      29.92F
$$

COZ006>008-011-290700-
...WEST CENTRAL VALLEYS...

CITY           SKY/WX    TMP DP  RH WIND       PRES   REMARKS
GRAND JUNCTION PTCLDY    32  23  69 CALM      29.96F
MONTROSE       CLEAR     29  19  66 SE9       30.01F WCI  20
EAGLE          CLEAR     28  23  80 E3        30.02F
RIFLE          CLEAR     27  23  85 CALM      29.99F
DELTA          CLEAR     32  20  62 E3        30.00S
NUCLA          CLEAR     36  16  44 E14       30.05F
$$

COZ017>023-064>068-290700-
...SOUTHWEST COLORADO...

CITY           SKY/WX    TMP DP  RH WIND       PRES   REMARKS
DURANGO        CLEAR     29  16  58 N7        30.09F WCI  22
CORTEZ         CLEAR     24  14  65 NE5       30.06S WCI  18
PAGOSA SPRINGS CLEAR     28  12  50 CALM      30.13F
TELLURIDE      CLEAR     37   6  27 CALM      30.16F
WOLF CREEK PAS MOCLDY    28   5  37 MISG      30.24S
$$

COZ009-010-012-014-032>034-037-058>063-290700-
...CENTRAL COLORADO...

CITY           SKY/WX    TMP DP  RH WIND       PRES   REMARKS
ASPEN          CLEAR     30  13  49 S6        30.03F WCI  24
BUENA VISTA    CLEAR     43   4  19 W7G23     30.00S
COPPER MTN     PTCLDY    34   0  23 SW16G24   30.14F WCI  23
BERTHOUD PASS  NOT AVBL
COTTONWOOD PAS CLEAR     43  -9  11 W25G44    30.03F
GUNNISON       CLEAR     16  10  79 CALM      30.13S
KREMMLING      CLEAR     39  12  33 SW18G24   29.96F
LEADVILLE      CLEAR     24   4  42 NE8       30.07F WCI  15
MONARCH PASS   PTCLDY    28   1  31 W38G45    30.25F WCI  11
SALIDA         CLEAR     46   5  18 SW5       30.07S
SUNLIGHT       PTCLDY    32  16  51 S3        30.11S
WILKERSON PASS PTCLDY    32  -2  23 W14G29    30.08F WCI  22
$$

COZ069>075-290700-
...SAN LUIS VALLEY/SANGRE DE CRISTO MOUNTAINS...

CITY           SKY/WX    TMP DP  RH WIND       PRES   REMARKS
ALAMOSA        PTCLDY    27   5  39 CALM      30.07S
LA VETA PASS   NOT AVBL
SAGUACHE       PTCLDY    23  12  63 NW8       30.08F WCI  14
$$

COZ035-036-038>040-290700-
...NORTHERN COLORADO FRONT RANGE...

CITY           SKY/WX    TMP DP  RH WIND       PRES   REMARKS
DENVER INTL AP CLOUDY    58   9  14 W10G22    29.78S
DMNS CITY PARK   N/A     51  10  19 S5        29.78F
AURORA         MOCLDY    45  13  27 S12       29.81F
FRONT RANGE AP CLOUDY    50  16  25 SW10      29.81F
ERIE MUNI ARPT MOCLDY    54   6  14 SW6       29.78F
BOULDER MUN AP MOCLDY    59  10  14 S8        29.77S
CENTENNIAL     MOCLDY    42  12  29 S9        29.81F
BROOMFIELD     MOCLDY    54   9  16 SW3       29.80F
FORT COLLINS   CLOUDY    59  14  17 W20       29.75F
LONGMONT       CLOUDY    63   9  12 SW16      29.77F
$$

COZ041-046-047-076>085-087-088-290700-
...PIKES PEAK/PALMER DIVIDE AND SOUTHERN FOOTHILLS...

CITY           SKY/WX    TMP DP  RH WIND       PRES   REMARKS
COLO. SPRINGS  MOCLDY    51   4  14 NW9       29.86F
A. F. ACADEMY  PTCLDY    52   2  13 VRB3      29.88F
ELLICOTT       NOT AVBL
FALCON         NOT AVBL
FORT CARSON    PTCLDY    47   7  19 W3        29.83F
LIMON          CLOUDY    37  14  38 NW10      29.81S
MONUMENT HILL  MOCLDY    43   5  21 SW8       29.88F
TRINIDAD       CLOUDY    51  13  21 W14       29.88S
$$

COZ042>045-048>051-090-091-290700-
...NORTHEAST COLORADO...

CITY           SKY/WX    TMP DP  RH WIND       PRES   REMARKS
GREELEY ARPT   MOCLDY    45  16  31 W8        29.76S
AKRON          CLOUDY    42  22  44 W10       29.74F
BURLINGTON     CLOUDY    45  14  28 W13       29.72F
WRAY           CLOUDY    35  23  62 W5        29.70F WCI  31
STERLING       CLOUDY    34  30  86 W5        29.71F WCI  30
HOLYOKE        CLOUDY    37  27  65 W9        29.70F
FORT MORGAN    CLOUDY    34  25  69 W6        29.74F WCI  29
$$

COZ086-089-092>099-290700-
...SOUTHEAST COLORADO...

CITY           SKY/WX    TMP DP  RH WIND       PRES   REMARKS
PUEBLO         PTCLDY    37  16  42 W8        29.81S
LA JUNTA       CLOUDY    54  16  22 SW18      29.78S
LAMAR          CLOUDY    48  20  32 SW10      29.74F
SPRINGFIELD      N/A     48  13  24 NW17      29.79S
$$


USA.gov is the U.S. government's official web portal to all federal, state and local government web resources and services.